Weather in Golfito

Costa Rica     8°37′58″N   83°09′40″W
В апреле 2022 года жителям России запретили посещать сайт meteo.paraplan.net по решению Генеральной прокуратуры. Аудитория сайта уменьшилась в 10 раз. Владельцы сайта не видят смысла в поддержке погодного сервера в таких условиях. Сайт будет закрыт в октябре.
temp.,
°C
wind,
m/s
gust,
m/s
humid.,
%
clouds,
%
prec.,
mm/h
press.,
hPa
HPBL,
m
29 september, thu
thu2900:00+22n119880 2.6 101242
03:00+22nne119792 0.3 101123
06:00+22n1196100 0.3 101237
09:00+27wsw117735 0.2 1013772
12:00+26ssw228363 2.9 1010564
15:00+25wsw1188100 5.7 1008405
18:00+23nw119686 11.4 101021
21:00+22ne1197100 3.6 101124
30 september, fri
fri3000:00+22n119748 5.4 101023
03:00+22n119899 0.1 100918
06:00+22nnw1197100 0.3 101062
09:00+26wsw118494 0.9 1011602
12:00+26wsw1287100 6.9 1010578
15:00+24wsw1291100 7.5 1008356
18:00+22nw1197100 13.2 101048
21:00+22nnw1296100 1.6 101263
1 october, sat
sat100:00+22nnw1296100 2.2 101161
03:00+21nnw1297100 0.6 101068
06:00+22n1196100 1.4 101127
09:00+24w1191100 0.6 1012256
12:00+25sw128481 3.0 1011743
15:00+24sw128876 5.3 1010511
18:00+22e1198100 16.6 101240
21:00+22ese1197100 7.3 101524
2 october, sun
sun200:00+21n1297100 7.7 101357
03:00+21nnw119698 0.0 101229
06:00+21nne1195100 0.0 101336
09:00+22nne0094100 0.0 101585
12:00+27wsw117499 0.3 1013807
15:00+26w2384100 1.0 1011639
18:00+22nnw119690 1.5 101335
21:00+22nnw1197100 0.0 101540
3 october, mon
mon300:00+22n1197100 0.2 101453
03:00+22n119797 0.8 101234
06:00+22ne119595 1.0 101436
09:00+25sse228798 2.6 1015410
12:00+25sw119199 7.0 1014238
15:00+24e1194100 5.8 101254
18:00+22nnw1299100 24.4 1013100
21:00+21n139799 0.8 101486